Historique des stations

Station météo de Le Mesnil-Thomas

Altitude de la station : 196 m







Données météorologiques pour le 14/08/2022
Date
Heure
Températures Humidité Point de rosée Vitesse
du vent
Direction Rafales Windchill Pression Pluviométrie
Cumul
Date
Heure
Températures Humidité Point de rosée Vitesse
du vent
Direction Rafales Windchill Pression Pluviométrie
Cumul
14/08/2022 05:3018.9 °C52 %8.9 °C2 km/hSSO6 km/h18.9 1009 hPa-
14/08/2022 05:2818.8 °C52 %8.9 °C3 km/hSSO14 km/h18.9 1009 hPa-
14/08/2022 05:1517.6 °C57 %8.9 °C2 km/hS14 km/h17.8 1009 hPa-
14/08/2022 05:1417.4 °C57 %8.9 °C3 km/hS14 km/h17.2 1009 hPa-
14/08/2022 04:5916.1 °C63 %8.9 °C-SSE3 km/h16.1 1009 hPa-
14/08/2022 04:4516.2 °C63 %8.9 °C-SSE2 km/h16.1 1009 hPa-
14/08/2022 04:4416.2 °C63 %8.9 °C-SSE3 km/h16.1 1009 hPa-
14/08/2022 04:2916.0 °C62 %8.9 °C-SSE3 km/h16.1 1009 hPa-
14/08/2022 04:1515.7 °C62 %8.3 °C-NE3 km/h15.6 1009 hPa-
14/08/2022 04:0015.6 °C63 %8.3 °C---15.6 1009 hPa-
14/08/2022 03:5915.6 °C63 %8.3 °C-NE3 km/h15.6 1009 hPa-
14/08/2022 03:4515.6 °C63 %8.3 °C-NE3 km/h15.6 1010 hPa-
14/08/2022 03:3015.6 °C62 %8.3 °C-NE2 km/h15.6 1010 hPa-
14/08/2022 03:2915.5 °C62 %8.3 °C-NE3 km/h15.6 1010 hPa-
14/08/2022 03:1415.4 °C62 %8.3 °C-NE3 km/h15.6 1010 hPa-
14/08/2022 03:0015.4 °C60 %7.8 °C-NE2 km/h15.6 1009 hPa-
14/08/2022 02:5915.4 °C60 %7.8 °C-NE3 km/h15.6 1009 hPa-
14/08/2022 02:4415.7 °C60 %7.8 °C-NE3 km/h15.6 1009 hPa-
14/08/2022 02:3115.9 °C59 %7.8 °C---16.1 1010 hPa-
14/08/2022 02:3015.9 °C59 %7.8 °C-NE3 km/h16.1 1010 hPa-
14/08/2022 02:1516.2 °C58 %7.8 °C-NE2 km/h16.1 1010 hPa-
14/08/2022 02:1416.2 °C58 %7.8 °C-NE3 km/h16.1 1010 hPa-
14/08/2022 02:0016.2 °C58 %7.8 °C-NE3 km/h16.1 1010 hPa-
14/08/2022 01:5916.2 °C58 %7.8 °C-NE3 km/h16.1 1010 hPa-
14/08/2022 01:4517.1 °C53 %7.2 °C---17.2 1010 hPa-
14/08/2022 01:4417.1 °C53 %7.2 °C-NE2 km/h17.2 1011 hPa-
14/08/2022 01:2917.6 °C52 %7.8 °C-NE2 km/h17.8 1011 hPa-
14/08/2022 01:1418.2 °C51 %7.8 °C-NE2 km/h18.3 1011 hPa-
14/08/2022 01:0018.6 °C49 %7.8 °C-NE2 km/h18.3 1011 hPa-
14/08/2022 00:4519.0 °C47 %7.2 °C---18.9 1011 hPa-
14/08/2022 00:4419.0 °C47 %7.2 °C-NE2 km/h18.9 1011 hPa-
14/08/2022 00:2919.6 °C46 %7.8 °C-NE2 km/h19.4 1011 hPa-
14/08/2022 00:1620.2 °C44 %7.8 °C---20.0 1011 hPa-
14/08/2022 00:1520.3 °C44 %7.8 °C---20.6 1011 hPa-
14/08/2022 00:0020.8 °C43 %7.8 °C---20.6 1012 hPa-


Minima :

Température : 15.4 °C
Humidité : 43 %
Point de rosée : 7.2 °C
Vent moyen : 2 km/h
Windchill : 15.6
Pression atm. : 1009 hPa
Maxima :

Température : 20.8 °C
Humidité : 63 %
Point de rosée : 8.9 °C
Vent moyen : 3 km/h
Windchill : 20.6
Pression atm. : 1012 hPa
Rafales max : 14 km/h
Cumul de pluie sur 24H : 0 mm

Le Mesnil-Thomas est une commune du département Eure-et-Loir (28).
La station météorologique du réseau de l'association la plus proche de Le Mesnil-Thomas est celle de Digny



Icône Facebook Association Météo Centre Icône Twitter Association Météo Centre Icône Chaîne Youtube Association Météo Centre Icône contact Association Météo Centre Icône Insta Association Météo Centre